This is the latest recevied weather packets stored in our database for station/object K7NDG. If no packets are shown the sender has not sent any weather packets the latest 10 day(s).
| Time | Temp. | Humidity | Pressure | Rain* | Wind** | Luminosity | Snow |
|---|---|---|---|---|---|---|---|
| 1777658838 | 16.11° C | 74% | 1018.3 hPa | 0 mm | - | 580 W/m² | - |
| 1777658533 | 15.56° C | 75% | 1018.3 hPa | 0 mm | - | 579 W/m² | - |
| 1777658230 | 15.56° C | 76% | 1018.4 hPa | 0 mm | - | 448 W/m² | - |
| 1777657927 | 15° C | 76% | 1018.2 hPa | 0 mm | - | 508 W/m² | - |
| 1777657623 | 15° C | 77% | 1018.4 hPa | 0 mm | - | 330 W/m² | - |
| 1777657321 | 15° C | 76% | 1018.2 hPa | 0 mm | - | 432 W/m² | - |
| 1777657018 | 14.44° C | 78% | 1018.4 hPa | 0 mm | - | 492 W/m² | - |
| 1777656715 | 14.44° C | 78% | 1018.3 hPa | 0 mm | - | 396 W/m² | - |
| 1777656411 | 14.44° C | 80% | 1018.4 hPa | 0 mm | - | 361 W/m² | - |
| 1777656106 | 13.89° C | 81% | 1018.3 hPa | 0 mm | - | 443 W/m² | - |
| 1777655802 | 13.33° C | 81% | 1018.4 hPa | 0 mm | - | 236 W/m² | - |
| 1777655499 | 13.33° C | 80% | 1018.5 hPa | 0 mm | - | 240 W/m² | - |
| 1777655197 | 13.33° C | 80% | 1018.4 hPa | 0 mm | - | 224 W/m² | - |
| 1777654893 | 13.33° C | 83% | 1018.4 hPa | 0 mm | - | 212 W/m² | - |
| 1777654591 | 12.78° C | 82% | 1018.5 hPa | 0 mm | - | 265 W/m² | - |
| 1777654288 | 12.78° C | 83% | 1018.2 hPa | 0 mm | - | 175 W/m² | - |
| 1777653987 | 12.78° C | 83% | 1018.3 hPa | 0 mm | - | 179 W/m² | - |
| 1777653683 | 12.78° C | 83% | 1018.2 hPa | 0 mm | - | 174 W/m² | - |
| 1777653379 | 12.78° C | 84% | 1018.2 hPa | 0 mm | - | 177 W/m² | - |
| 1777653076 | 12.22° C | 84% | 1018.3 hPa | 0 mm | - | 172 W/m² | - |
| 1777652772 | 12.22° C | 85% | 1018.1 hPa | 0 mm | - | 133 W/m² | - |
| 1777652469 | 12.22° C | 85% | 1018.5 hPa | 0 mm | - | 99 W/m² | - |
| 1777652167 | 12.22° C | 85% | 1018.4 hPa | 0 mm | - | 110 W/m² | - |
| 1777651863 | 12.22° C | 85% | 1018.7 hPa | 0 mm | - | 81 W/m² | - |
| 1777651560 | 12.22° C | 85% | 1018.4 hPa | 0 mm | - | 89 W/m² | - |
* Rain latest hour (hover to see other rain measurements)
** Current wind speed in m/s (hover to see current wind gust speed)